Location: Blienschwiller
(48.3416°N, 7.4182°E)
Time: 20:10:51
(UTC+00:00)

STARLINK-1090 - Pass Details

Date: 18 February 2020
Orbit: 379 x 380 km, 53.0° (Epoch: 07 April)

Event Time Altitude Azimuth Distance (km) Brightness Sun altitude
Exits shadow 04:13:26 16° 143° (SE) 1,118 5.5 -23.9°
Drops below altitude 10° 04:15:46 10° 95° (E) 1,418 6.7 -23.5°
Enters shadow 05:11:39 -70° 242° (WSW) 12,382 10.4 -14.2°
Maximum altitude 05:49:15 90° 180° (S) 393 2.9 -8.0°
